Content
SEND FEEDBACK

Daily
Averages
Monthly
Summary
Canada

MONTREAL, QUEBEC


Home > North America > Canada > Quebec
Elevation: 118 feet     Latitude: 45 28N     Longitude: 073 45W

WEATHER
 
SELECT A DAY
Number of Records: 202,601;   Date Range: 1/1/95 - 11/27/14
 
SHARE

PRINT THIS DATA

[ ← Previous Day ]
WEATHER ALMANAC - FEBRUARY 6, 2013
[ Next Day → ]
[ °C ]   °F
Weather ElementAverageHighLow
Temperature14 °F21.2 °F (12:00 pm)5 °F (11:00 pm)
Dewpoint1.3 °F10.4 °F (5:00 am)-9.4 °F (10:00 pm)
Humidity57.3 %86 % (5:00 am)30 % (7:00 pm)
Barometer28.00 in30.42 in (11:00 pm) (7:00 pm)
Wind Speed10.4 mph24.2 mph (4:00 pm)
Wind Gust28.8 mph (2:00 pm)
Weather ElementAverage
Visibility15.4 mi
Wind DirectionWSW (241.7 °)

Weather ElementTotal
Precipitation---
Heating Degree Days51.9 (Base 65)
Averaged from 29 records on February 6, 2013
WEATHER CONDITIONS BREAKOUT
WIND DIRECTION BREAKOUT
WEATHER BY HOUR - FEBRUARY 6, 2013
[ °C ]   °F
Local TimeTemperatureDewpointHumidityBarometerVisibilityWind DirectionWind SpeedGust SpeedPrecipitationEventsConditions
1:00 AM15.0 °F-1.0 °F34 %29.88 in15.0 miEast (80°)4.6 mphScattered Clouds
1:00 AM15.8 °F-0.4 °F49 %29.88 in15.0 miEast (80°)3.5 mphMostly Cloudy
2:00 AM15.8 °F1.4 °F53 %29.87 in15.0 miEast (80°)4.6 mphOvercast
3:00 AM15.8 °F1.4 °F53 %29.86 in15.0 miESE (110°)3.5 mphOvercast
3:06 AM15.8 °F0.0 °F15.0 miESE (120°)2.3 mphSnowLight Snow
4:00 AM15.8 °F3.2 °F58 %29.85 in5.0 miSSE (160°)4.6 mphSnowLight Snow
5:00 AM14.0 °F10.4 °F86 %29.85 in6.0 miWNW (290°)4.6 mphSnowLight Snow
6:00 AM14.0 °F10.4 °F86 %29.86 in4.0 miNW (310°)4.6 mphSnowLight Snow
7:00 AM12.0 °F9.0 °F80 %29.89 in6.0 miNW (310°)4.6 mphSnowLight Snow
7:00 AM12.2 °F8.6 °F85 %29.89 in6.0 miNW (320°)4.6 mphSnowLight Snow
8:00 AM12.2 °F6.8 °F79 %29.93 in15.0 miWNW (300°)4.6 mphSnowLight Snow
9:00 AM14.0 °F8.6 °F79 %29.95 in15.0 miWest (260°)3.5 mphSnowLight Snow
9:20 AM15.8 °F0.0 °F15.0 miSW (220°)4.6 mphPartly Cloudy
10:00 AM17.6 °F10.4 °F73 %29.98 in15.0 miWSW (250°)11.5 mphPartly Cloudy
11:00 AM19.4 °F10.4 °F68 %30.01 in15.0 miWSW (240°)12.7 mph18.4 mphPartly Cloudy
12:00 PM21.2 °F6.8 °F54 %30.03 in15.0 miWest (260°)17.3 mph26.5 mphPartly Cloudy
1:00 PM19.0 °F4.0 °F38 %30.07 in15.0 miWest (270°)18.4 mphPartly Cloudy
1:00 PM19.4 °F5.0 °F54 %30.07 in15.0 miWest (260°)17.3 mph24.2 mphPartly Cloudy
2:00 PM15.8 °F1.4 °F53 %30.11 in30.0 miWest (260°)21.9 mph28.8 mphPartly Cloudy
3:00 PM15.8 °F-2.2 °F45 %30.14 in30.0 miWSW (250°)19.6 mph26.5 mphClear
4:00 PM14.0 °F-4.0 °F45 %30.19 in30.0 miWest (260°)24.2 mphClear
5:00 PM12.2 °F-4.0 °F48 %30.24 in30.0 miWest (260°)15.0 mph28.8 mphScattered Clouds
6:00 PM12.2 °F-4.0 °F48 %30.28 in15.0 miWest (270°)15.0 mph21.9 mphMostly Cloudy
7:00 PM11.0 °F-6.0 °F30 %30.32 in15.0 miWNW (290°)15.0 mphMostly Cloudy
7:00 PM10.4 °F-5.8 °F48 %30.32 in15.0 miWNW (290°)15.0 mphMostly Cloudy
8:00 PM8.6 °F-5.8 °F52 %30.35 in15.0 miWNW (290°)11.5 mphMostly Cloudy
9:00 PM8.6 °F-7.6 °F48 %30.38 in15.0 miNW (310°)9.2 mphMostly Cloudy
10:00 PM6.8 °F-9.4 °F48 %30.40 in15.0 miNW (310°)12.7 mph20.7 mphMostly Cloudy
11:00 PM5.0 °F-9.4 °F52 %30.42 in15.0 miWNW (300°)11.5 mphScattered Clouds
Hourly data recorded from CYUL, located miles away from Montreal, Quebec







STORIES FROM OUR PARTNERS